Portada
METAR-TAF:

METAR-TAF

Aeroports :

Ghat, Líbia

latitud: 25-08N, longitud: 010-09E, altitud: 699 m

METAR: manca

Hora: 09:00 (07:00 UTC)

Pronòstic

L'informe es va fer fa 14 hores i 0 minuts, a les 17:00 UTC
Pronòstic vàlid del 09 a les 18 UTC al 10 a les 18 UTC
Vent 2 kt amb direcció variable
Visibilitat 10 km o més
sense núvols per sota de 1500 mi sense presència de cumulonimbus.

TAF: HLGT 091700Z 0918/1018 VRB02KT CAVOK

Observacions i pronòstics meteorològics de més de 4000 aeroports (METAR i TAF).

Les estacions disponibles són els punts grocs i vermells al mapa.

Posi el ratolí al punt desitjat per veure el nom de l'estació.

Feu clic per veure les observacions i els pronòstics meteorològics.

Per canviar el mapa: feu clic els botons verds amb una creu de color negre per apropar; al botó verd amb un guió per allunyar la imatge; o en les fletxes verdes per a mapes adjacents.


METAR-TAF: